Time,TemperatureF,DewpointF,PressureIn,WindDirection,WindDirectionDegrees,WindSpeedMPH,WindSpeedGustMPH,Humidity,HourlyPrecipIn,Conditions,Clouds,dailyrainin,SoftwareType,DateUTC
2013-10-15 00:13:00,73.0,70.0,29.94,SSE,161,0.0,0.0,91,0.00,,,0.08,,2013-10-15 05:13:00,
2013-10-15 00:22:00,73.0,71.0,29.94,SSE,161,0.0,0.0,92,0.00,,,0.08,,2013-10-15 05:22:00,
2013-10-15 00:42:00,73.0,71.0,29.94,SSE,161,0.0,0.0,92,0.00,,,0.08,,2013-10-15 05:42:00,
2013-10-15 00:52:00,73.0,71.0,29.94,SSE,161,0.0,0.0,92,0.00,,,0.08,,2013-10-15 05:52:00,
2013-10-15 01:12:00,73.0,71.0,29.94,SSE,161,0.0,0.0,92,0.00,,,0.08,,2013-10-15 06:12:00,
2013-10-15 01:22:00,73.0,71.0,29.94,SSE,161,0.0,0.0,92,0.00,,,0.08,,2013-10-15 06:22:00,
2013-10-15 01:43:00,73.0,71.0,29.93,SSE,161,0.0,0.0,93,0.00,,,0.08,,2013-10-15 06:43:00,
2013-10-15 01:52:00,73.0,71.0,29.93,SSE,161,0.0,0.0,93,0.00,,,0.08,,2013-10-15 06:52:00,
2013-10-15 02:12:00,72.0,70.0,29.93,SSE,161,0.0,0.0,93,0.00,,,0.08,,2013-10-15 07:12:00,
2013-10-15 02:22:00,72.0,70.0,29.93,SSE,161,0.0,0.0,93,0.00,,,0.08,,2013-10-15 07:22:00,
2013-10-15 02:32:00,72.0,70.0,29.93,SSE,161,0.0,0.0,93,0.00,,,0.08,,2013-10-15 07:32:00,
2013-10-15 02:42:00,72.0,70.0,29.93,SSE,161,0.0,0.0,93,0.00,,,0.08,,2013-10-15 07:42:00,
2013-10-15 02:52:00,72.0,70.0,29.93,SSE,161,0.0,0.0,93,0.00,,,0.08,,2013-10-15 07:52:00,
2013-10-15 03:12:00,72.0,70.0,29.93,SSE,161,0.0,0.0,94,0.00,,,0.08,,2013-10-15 08:12:00,
2013-10-15 03:22:00,72.0,70.0,29.93,SSE,161,0.0,0.0,94,0.00,,,0.08,,2013-10-15 08:22:00,
2013-10-15 03:42:00,72.0,70.0,29.93,SSE,161,0.0,0.0,94,0.00,,,0.08,,2013-10-15 08:42:00,
2013-10-15 03:52:00,72.0,70.0,29.93,SSE,161,0.0,0.0,94,0.00,,,0.08,,2013-10-15 08:52:00,
2013-10-15 04:12:00,72.0,70.0,29.92,SSE,161,0.0,0.0,94,0.00,,,0.08,,2013-10-15 09:12:00,
2013-10-15 04:22:00,72.0,70.0,29.92,SSE,161,0.0,0.0,94,0.00,,,0.08,,2013-10-15 09:22:00,
2013-10-15 04:53:00,72.0,70.0,29.90,SSE,161,0.0,0.0,94,0.00,,,0.08,,2013-10-15 09:53:00,
2013-10-15 05:03:00,72.0,70.0,29.90,SSE,161,0.0,0.0,94,0.00,,,0.08,,2013-10-15 10:03:00,
2013-10-15 05:13:00,72.0,70.0,29.90,SSE,161,0.0,0.0,94,0.00,,,0.08,,2013-10-15 10:13:00,
2013-10-15 05:23:00,72.0,70.0,29.90,SSE,161,0.0,0.0,95,0.00,,,0.08,,2013-10-15 10:23:00,
2013-10-15 05:42:00,72.0,70.0,29.90,SSE,161,0.0,0.0,95,0.00,,,0.08,,2013-10-15 10:42:00,
2013-10-15 05:53:00,72.0,70.0,29.90,SSE,161,0.0,0.0,95,0.00,,,0.08,,2013-10-15 10:53:00,
2013-10-15 06:11:00,71.0,69.0,29.89,SSE,161,0.0,0.0,95,0.00,,,0.08,,2013-10-15 11:11:00,
2013-10-15 06:22:00,71.0,69.0,29.89,SSE,161,0.0,0.0,95,0.00,,,0.08,,2013-10-15 11:22:00,
2013-10-15 06:42:00,72.0,70.0,29.91,SSE,161,0.0,0.0,95,0.00,,,0.08,,2013-10-15 11:42:00,
2013-10-15 06:53:00,72.0,70.0,29.91,SSE,161,0.0,0.0,95,0.00,,,0.08,,2013-10-15 11:53:00,
2013-10-15 07:12:00,72.0,70.0,29.91,SSE,161,0.0,0.0,95,0.00,,,0.08,,2013-10-15 12:12:00,
2013-10-15 07:22:00,72.0,70.0,29.91,SSE,161,0.0,0.0,95,0.00,,,0.08,,2013-10-15 12:22:00,
2013-10-15 07:32:00,72.0,70.0,29.91,SSE,161,0.0,0.0,95,0.00,,,0.08,,2013-10-15 12:32:00,
2013-10-15 07:42:00,72.0,70.0,29.91,SSE,161,0.0,0.0,95,0.00,,,0.08,,2013-10-15 12:42:00,
2013-10-15 07:52:00,72.0,70.0,29.91,SSE,161,0.0,0.0,95,0.00,,,0.08,,2013-10-15 12:52:00,
2013-10-15 08:11:00,72.0,70.0,29.92,SSE,161,0.0,0.0,95,0.00,,,0.08,,2013-10-15 13:11:00,
2013-10-15 08:21:00,72.0,70.0,29.92,SSE,161,0.0,0.0,95,0.00,,,0.08,,2013-10-15 13:21:00,
2013-10-15 08:42:00,72.0,70.0,29.92,SSE,161,0.0,0.0,95,0.00,,,0.02,,2013-10-15 13:42:00,
2013-10-15 08:52:00,72.0,70.0,29.93,SSE,161,0.0,0.0,95,0.00,,,0.00,,2013-10-15 13:52:00,
2013-10-15 09:12:00,72.0,70.0,29.93,SSE,161,0.0,0.0,95,0.00,,,0.00,,2013-10-15 14:12:00,
2013-10-15 09:22:00,72.0,70.0,29.93,SSE,161,0.0,0.0,95,0.00,,,0.00,,2013-10-15 14:22:00,
2013-10-15 09:42:00,73.0,71.0,29.93,SSE,161,0.0,0.0,95,0.00,,,0.00,,2013-10-15 14:42:00,
2013-10-15 09:52:00,73.0,71.0,29.93,SSE,161,0.0,0.0,94,0.00,,,0.00,,2013-10-15 14:52:00,
2013-10-15 10:11:00,74.0,72.0,29.94,SSE,161,0.0,0.0,93,0.00,,,0.00,,2013-10-15 15:11:00,
2013-10-15 10:22:00,74.0,72.0,29.94,SSE,161,0.0,0.0,92,0.00,,,0.00,,2013-10-15 15:22:00,
2013-10-15 10:33:00,74.0,72.0,29.94,SSE,161,0.0,0.0,92,0.00,,,0.00,,2013-10-15 15:33:00,
2013-10-15 10:44:00,74.0,72.0,29.94,SSE,161,0.0,0.0,92,0.00,,,0.00,,2013-10-15 15:44:00,
2013-10-15 10:53:00,74.0,72.0,29.94,SSE,161,0.0,0.0,92,0.00,,,0.00,,2013-10-15 15:53:00,
2013-10-15 11:23:00,78.0,73.0,29.93,SSE,164,0.0,7.0,84,0.00,,,0.00,,2013-10-15 16:23:00,
2013-10-15 11:42:00,78.0,72.0,29.94,SSE,167,4.0,5.0,81,0.00,,,0.00,,2013-10-15 16:42:00,
2013-10-15 11:53:00,78.0,72.0,29.94,SSE,167,4.0,5.0,81,0.00,,,0.00,,2013-10-15 16:53:00,
2013-10-15 12:12:00,80.0,71.0,29.93,South,176,0.0,8.0,73,0.00,,,0.00,,2013-10-15 17:12:00,
2013-10-15 12:22:00,80.0,71.0,29.93,South,176,0.0,8.0,73,0.00,,,0.00,,2013-10-15 17:22:00,
2013-10-15 12:42:00,80.0,71.0,29.92,South,182,0.0,5.0,73,0.00,,,0.00,,2013-10-15 17:42:00,
2013-10-15 12:53:00,81.0,71.0,29.92,South,181,0.0,7.0,72,0.00,,,0.00,,2013-10-15 17:53:00,
2013-10-15 13:02:00,81.0,71.0,29.92,South,181,0.0,7.0,72,0.00,,,0.00,,2013-10-15 18:02:00,
2013-10-15 13:12:00,81.0,71.0,29.92,South,181,0.0,7.0,72,0.00,,,0.00,,2013-10-15 18:12:00,
2013-10-15 13:22:00,81.0,71.0,29.92,South,181,0.0,7.0,72,0.00,,,0.00,,2013-10-15 18:22:00,
2013-10-15 13:42:00,84.0,71.0,29.90,SSE,167,0.0,5.0,66,0.00,,,0.00,,2013-10-15 18:42:00,
2013-10-15 13:52:00,84.0,71.0,29.90,South,186,0.0,7.0,65,0.00,,,0.00,,2013-10-15 18:52:00,
2013-10-15 14:12:00,85.0,72.0,29.88,South,186,0.0,3.0,66,0.00,,,0.00,,2013-10-15 19:12:00,
2013-10-15 14:22:00,85.0,71.0,29.87,South,186,0.0,6.0,63,0.00,,,0.00,,2013-10-15 19:22:00,
2013-10-15 14:42:00,85.0,72.0,29.87,South,184,0.0,5.0,65,0.00,,,0.00,,2013-10-15 19:42:00,
2013-10-15 14:52:00,85.0,72.0,29.87,South,184,0.0,5.0,65,0.00,,,0.00,,2013-10-15 19:52:00,
2013-10-15 15:12:00,87.0,71.0,29.85,South,182,0.0,6.0,60,0.00,,,0.00,,2013-10-15 20:12:00,
2013-10-15 15:22:00,86.0,71.0,29.85,South,183,0.0,3.0,62,0.00,,,0.00,,2013-10-15 20:22:00,
2013-10-15 15:42:00,86.0,71.0,29.85,South,178,2.0,6.0,61,0.00,,,0.00,,2013-10-15 20:42:00,
2013-10-15 15:52:00,86.0,70.0,29.84,South,178,0.0,2.0,60,0.00,,,0.00,,2013-10-15 20:52:00,
2013-10-15 16:13:00,86.0,70.0,29.83,South,178,0.0,3.0,60,0.00,,,0.00,,2013-10-15 21:13:00,
2013-10-15 16:22:00,86.0,71.0,29.83,South,178,0.0,4.0,61,0.00,,,0.00,,2013-10-15 21:22:00,
2013-10-15 16:44:00,87.0,70.0,29.83,South,178,0.0,3.0,57,0.00,,,0.00,,2013-10-15 21:44:00,
2013-10-15 16:54:00,87.0,70.0,29.83,South,178,0.0,3.0,57,0.00,,,0.00,,2013-10-15 21:54:00,
2013-10-15 17:04:00,87.0,70.0,29.83,South,178,0.0,3.0,57,0.00,,,0.00,,2013-10-15 22:04:00,
2013-10-15 17:13:00,87.0,70.0,29.83,South,178,0.0,3.0,57,0.00,,,0.00,,2013-10-15 22:13:00,
2013-10-15 17:23:00,86.0,69.0,29.83,South,177,0.0,1.0,58,0.00,,,0.00,,2013-10-15 22:23:00,
2013-10-15 17:43:00,86.0,70.0,29.83,South,177,0.0,0.0,60,0.00,,,0.00,,2013-10-15 22:43:00,
2013-10-15 17:53:00,86.0,70.0,29.83,South,177,0.0,3.0,59,0.00,,,0.00,,2013-10-15 22:53:00,
2013-10-15 18:12:00,84.0,69.0,29.83,South,177,0.0,0.0,61,0.00,,,0.00,,2013-10-15 23:12:00,
2013-10-15 18:22:00,84.0,69.0,29.83,South,177,0.0,0.0,61,0.00,,,0.00,,2013-10-15 23:22:00,
2013-10-15 18:43:00,84.0,70.0,29.83,South,177,0.0,0.0,64,0.00,,,0.00,,2013-10-15 23:43:00,
2013-10-15 18:52:00,84.0,70.0,29.83,South,177,0.0,0.0,64,0.00,,,0.00,,2013-10-15 23:52:00,
2013-10-15 19:12:00,82.0,70.0,29.82,South,177,0.0,0.0,67,0.00,,,0.00,,2013-10-16 00:12:00,
2013-10-15 19:22:00,82.0,71.0,29.83,South,177,0.0,0.0,69,0.00,,,0.00,,2013-10-16 00:22:00,
2013-10-15 19:42:00,81.0,70.0,29.83,South,177,0.0,0.0,70,0.00,,,0.00,,2013-10-16 00:42:00,
2013-10-15 19:52:00,81.0,70.0,29.83,South,177,0.0,0.0,70,0.00,,,0.00,,2013-10-16 00:52:00,
2013-10-15 20:02:00,81.0,70.0,29.83,South,177,0.0,0.0,70,0.00,,,0.00,,2013-10-16 01:02:00,
2013-10-15 21:12:00,76.0,70.0,29.86,South,177,0.0,0.0,81,0.00,,,0.00,,2013-10-16 02:12:00,
2013-10-15 21:22:00,76.0,70.0,29.86,South,177,0.0,0.0,82,0.00,,,0.00,,2013-10-16 02:22:00,
2013-10-15 21:32:00,76.0,70.0,29.86,South,177,0.0,0.0,82,0.00,,,0.00,,2013-10-16 02:32:00,
2013-10-15 21:42:00,76.0,70.0,29.86,South,177,0.0,0.0,82,0.00,,,0.00,,2013-10-16 02:42:00,
2013-10-15 21:52:00,77.0,71.0,29.88,South,177,0.0,0.0,82,0.00,,,0.00,,2013-10-16 02:52:00,
2013-10-15 22:11:00,76.0,70.0,29.90,South,176,3.0,3.0,83,0.00,,,0.00,,2013-10-16 03:11:00,
2013-10-15 22:22:00,76.0,70.0,29.90,South,176,3.0,3.0,83,0.00,,,0.00,,2013-10-16 03:22:00,
2013-10-15 22:45:00,72.0,66.0,29.92,North,355,0.0,6.0,81,0.00,,,0.00,,2013-10-16 03:45:00,
2013-10-15 22:55:00,70.0,64.0,29.92,NNW,338,0.0,7.0,81,0.00,,,0.00,,2013-10-16 03:55:00,
2013-10-15 23:14:00,69.0,64.0,29.93,North,360,0.0,6.0,83,0.00,,,0.00,,2013-10-16 04:14:00,
2013-10-15 23:24:00,68.0,63.0,29.93,NNW,345,0.0,7.0,83,0.00,,,0.00,,2013-10-16 04:24:00,
2013-10-15 23:43:00,67.0,61.0,29.93,NNW,344,4.0,10.0,82,0.00,,,0.00,,2013-10-16 04:43:00,
2013-10-15 23:54:00,67.0,61.0,29.93,NNW,344,4.0,10.0,82,0.00,,,0.00,,2013-10-16 04:54:00,